Location: Newark
(51.0000°N, 11.4100°E)
Time: 08:05:09
(UTC+00:00)

deb Explorer IX - Visible Passes

Search period start: 19 November 2019 00:00
Search period end: 29 November 2019 00:00
Orbit: 546 x 1105 km, 38.8° (Epoch: 17 November)

Date Brightness Start Highest point End Pass type
(mag) Time Alt. Az. Time Alt. Az. Time Alt. Az.
19 Nov ? 04:06:44 17° SSW 04:06:44 17° SSW 04:09:35 10° SSE visible
20 Nov ? 03:46:01 15° S 03:46:01 15° S 03:47:49 10° SSE visible
21 Nov ? 03:25:20 12° SSE 03:25:20 12° SSE 03:26:02 10° SSE visible
